Dewpoint
69 69 66 66 67 68 69 69 68 67 66 66 66 66 66 66 67 67 67 66 65 65 66 65 65 66 66 66 66 66 66 64 61 61 62 63 63 64 63 62 62 62 63
68 69 69 69 70 70 69 68 67 66 66 65 65 65 65 66 65 65 65 66 65 64 64 64 64 66 65 65 65 65 66 62 61 59 61 62 62 62 61 61 61 62 62
68 68 68 69 69 68 68 67 67 66 65 64 64 64 64 65 64 64 64 64 64 64 64 64 64 64 64 64 65 65 65 63 61 60 59 59 61 62 60 61 60 61 62
66 68 69 69 68 67 68 67 67 67 66 65 65 64 62 63 63 64 64 64 64 63 63 63 63 64 64 63 64 64 63 62 62 61 60 58 59 60 60 59 58 59 59
68 68 68 68 68 68 68 68 68 67 67 67 66 62 60 61 63 64 64 64 63 62 62 62 60 62 65 64 62 60 60 61 61 60 59 59 58 59 59 59 58 58 58
69 68 68 68 67 67 68 68 68 67 67 65 64 62 61 61 60 61 64 63 63 62 62 59 59 64 63 64 63 62 60 60 59 59 58 58 58 59 59 59 58 56 55
68 68 68 68 67 67 67 67 67 66 65 64 64 63 62 61 59 58 61 64 62 62 62 60 59 61 62 62 62 61 61 60 61 60 59 59 59 59 59 59 58 57 55
68 68 68 67 66 66 65 65 65 66 65 65 64 64 63 62 59 57 59 62 61 61 62 61 60 60 60 61 61 61 60 59 59 59 59 58 58 59 59 59 59 57 57
66 65 65 65 64 64 64 63 63 64 65 65 64 64 63 63 57 55 58 61 62 62 61 61 61 61 59 58 60 59 59 59 59 59 58 58 57 57 58 59 57 57 56
63 63 62 62 63 62 63 64 64 62 62 65 65 64 62 63 56 53 56 59 61 61 61 61 59 60 57 55 60 59 58 58 59 59 59 57 56 57 58 59 58 57 56
62 62 61 61 62 62 61 62 62 62 61 61 62 64 64 63 61 52 52 59 59 60 61 61 61 56 53 52 56 60 59 58 58 58 57 57 56 55 56 58 58 58 57
59 59 59 60 60 61 59 59 60 61 61 61 60 60 63 64 58 51 50 54 58 58 59 61 61 55 51 50 52 55 55 57 58 57 56 56 58 58 57 57 56 57 58
63 62 62 62 61 61 59 60 61 61 60 59 60 60 63 65 63 54 50 54 56 59 59 58 56 55 52 50 52 52 53 59 57 56 56 58 58 59 57 57 56 57 56
56 57 59 59 62 63 62 63 64 62 61 60 60 61 63 63 64 60 58 58 57 60 59 60 57 56 55 57 56 55 54 53 56 57 57 56 57 58 59 59 57 58 58
54 55 56 58 59 59 61 58 57 63 60 62 61 62 62 64 64 57 57 60 61 60 60 58 56 54 55 57 57 57 54 53 51 51 51 51 52 52 55 59 58 58 58
53 53 53 55 56 58 59 61 50 47 45 46 48 58 62 57 52 51 50 51 52 50 59 60 57 56 56 56 57 57 56 55 55 53 53 52 53 53 53 55 57 59 57
52 52 53 54 57 56 58 59 59 55 46 46 43 44 50 53 49 49 48 47 48 50 61 61 60 57 57 57 58 59 58 59 58 57 56 55 56 55 55 55 55 55 53
55 52 52 52 54 57 58 59 60 57 55 53 48 47 42 44 46 45 45 50 54 55 61 60 60 60 60 59 59 58 58 58 57 57 56 56 57 56 56 55 55 55 55
56 57 57 55 55 53 56 58 59 58 57 56 55 50 45 43 45 47 48 60 59 57 59 58 58 58 58 58 58 58 57 56 55 55 54 54 54 54 53 53 53 50 51
54 54 55 56 56 56 55 55 57 58 57 57 56 55 55 55 56 55 56 57 57 57 59 58 57 57 57 57 55 54 53 52 52 51 51 50 50 50 50 49 49 48 48
53 52 53 52 55 56 56 55 54 56 55 56 57 54 48 57 56 55 56 57 58 59 58 57 56 55 54 53 52 51 50 50 50 50 50 51 50 49 48 48 48 51 51
52 51 51 51 52 53 56 55 54 54 57 57 57 55 48 58 58 57 56 56 56 57 57 56 54 53 53 52 51 49 48 48 48 48 47 48 48 48 48 48 48 49 48
52 52 52 52 52 51 53 55 56 56 56 58 57 55 55 55 55 55 55 54 54 54 53 52 50 47 47 47 47 47 43 40 39 41 41 44 45 45 45 46 47 45 44
52 53 53 53 53 53 54 56 55 53 57 56 55 55 55 55 54 53 52 52 50 49 48 47 45 41 37 36 35 34 34 33 33 35 38 41 43 43 44 44 43 43 43
53 52 52 52 52 52 55 55 55 55 54 53 52 53 53 53 51 50 49 49 47 44 40 36 34 34 32 30 29 28 29 29 30 31 40 42 42 41 42 41 41 40 40
51 52 51 51 51 51 53 53 53 52 53 53 53 53 54 51 50 47 46 45 43 38 35 33 31 29 28 27 26 28 28 29 30 32 34 30 27 28 32 31 33 38 37
Lifted_Index
-7 -6 -5 -4 -4 -4 -5 -5 -5 -4 -3 -2 -2 -1 -1 -0 -0 -0 -1 -1 -2 -2 -2 -2 -2 -2 -2 -2 -2 -2 -2 -2 -2 -1 -0 -0 0 0 0 0 1 1 1
-7 -6 -6 -5 -6 -6 -6 -5 -5 -4 -3 -2 -1 -1 -1 -0 -0 -0 -0 -1 -1 -2 -2 -2 -2 -2 -2 -2 -2 -2 -2 -2 -2 -1 -1 -0 -0 0 0 0 -0 0 1
-7 -6 -6 -6 -7 -6 -6 -5 -4 -4 -3 -2 -1 -1 -1 -1 -1 -0 -0 -1 -1 -1 -2 -2 -2 -2 -2 -2 -2 -2 -2 -2 -2 -2 -1 -1 -0 -0 -0 -1 -1 -0 1
-7 -6 -6 -7 -7 -6 -6 -5 -4 -4 -3 -2 -1 -1 -1 -1 -1 -1 -0 -0 -1 -1 -1 -1 -1 -1 -1 -2 -2 -2 -2 -2 -2 -2 -2 -1 -1 -1 -1 -2 -2 -1 0
-6 -6 -7 -7 -7 -6 -6 -5 -4 -3 -3 -2 -2 -1 -1 -0 -0 -1 -1 -1 -1 -1 -1 -0 0 0 -1 -2 -2 -2 -1 -1 -1 -1 -2 -1 -1 -1 -1 -1 -1 -0 1
-7 -7 -7 -7 -7 -7 -6 -5 -4 -4 -3 -3 -3 -2 -1 -0 0 -0 -1 -1 -1 -1 -0 0 1 1 0 -1 -2 -1 -1 -0 -0 -1 -1 -1 -1 -1 -1 -1 -0 0 1
-7 -7 -7 -7 -7 -7 -6 -5 -5 -4 -3 -3 -3 -2 -1 -0 0 0 -0 -1 -1 -1 -0 0 1 2 1 -0 -1 -1 -0 0 0 0 0 -0 -0 -1 -0 0 0 1 1
-8 -8 -8 -7 -7 -7 -6 -6 -5 -4 -4 -3 -3 -3 -2 -1 -1 -0 -0 -0 -0 -0 -1 -0 1 1 1 1 -0 -0 -0 0 1 1 1 1 0 0 0 0 1 1 1
-8 -8 -8 -8 -7 -7 -6 -5 -5 -4 -3 -3 -3 -3 -2 -2 -2 -1 -1 -0 0 -0 -0 -0 0 1 1 1 1 1 1 1 1 1 1 1 1 1 1 1 1 1 2
-9 -8 -8 -8 -7 -6 -5 -5 -4 -3 -3 -2 -2 -3 -3 -3 -2 -2 -1 -1 -0 0 -0 -0 -0 0 1 1 1 1 1 1 1 1 1 1 1 2 2 2 2 2 2
-8 -8 -7 -6 -5 -4 -4 -3 -3 -3 -2 -1 -1 -1 -2 -3 -3 -3 -2 -1 -1 -0 -0 -0 -0 -0 0 1 1 1 1 1 1 1 1 2 2 2 2 3 2 2 2
-5 -5 -4 -4 -3 -3 -2 -2 -2 -2 -2 -1 1 1 -1 -2 -3 -3 -2 -2 -1 -1 0 0 0 -0 -0 1 1 2 1 1 1 1 2 2 2 2 2 3 3 3 3
-2 -2 -2 -2 -2 -2 -2 -1 -1 -2 -2 -1 1 2 -0 -2 -3 -3 -3 -2 -2 -1 0 1 1 0 -0 0 1 1 1 1 1 1 1 2 2 2 2 2 2 3 3
1 1 1 0 -1 -1 -1 -1 -1 -2 -3 -2 -0 1 -1 -2 -2 -2 -2 -2 -1 -1 0 1 1 1 1 0 1 1 1 1 1 1 1 1 1 2 2 2 2 2 2
2 2 2 2 1 0 -0 -1 -1 -2 -2 -2 -1 -1 -1 -2 -2 -2 -2 -2 -1 0 1 1 1 1 1 1 1 1 1 1 1 1 1 1 1 2 2 2 2 2 2
4 4 3 3 2 2 1 0 -0 -1 -2 -2 -1 -1 -2 -2 -1 -1 -1 -1 -1 0 1 1 1 1 1 1 1 1 1 1 1 1 1 1 1 1 2 2 2 2 2
4 4 4 4 4 3 2 1 0 -0 -1 -1 -1 -1 -1 -1 -1 -0 -1 -1 -0 0 0 0 0 0 1 1 2 2 2 2 2 2 2 2 2 2 1 1 1 1 1
4 5 5 5 4 4 3 2 1 1 0 -0 -0 -0 -1 -1 -0 -0 -1 -1 -0 -0 0 0 0 1 1 2 2 2 2 2 2 2 2 3 3 2 2 2 2 2 2
4 5 5 5 4 4 4 3 2 2 1 1 1 1 1 -0 -0 -0 -0 -0 0 1 1 1 1 2 2 2 2 2 2 3 3 3 3 3 3 4 4 3 3 3 3
4 5 5 5 4 4 3 3 3 2 2 2 2 2 2 2 1 1 1 1 2 2 2 2 3 3 3 3 3 3 4 4 4 4 4 4 4 5 5 5 5 5 5
4 4 5 5 5 4 3 3 3 2 2 2 3 3 3 3 2 2 2 2 2 2 2 3 4 4 4 4 4 5 5 5 5 5 5 5 6 6 6 6 6 6 6
4 4 4 4 4 4 3 3 2 2 2 2 2 2 2 3 3 2 2 2 2 2 2 3 3 4 4 4 4 5 5 6 6 6 6 6 6 6 6 6 6 6 7
3 3 3 3 3 3 2 2 2 2 2 2 1 1 1 2 2 2 1 2 2 2 2 3 3 3 4 4 5 5 6 7 8 8 8 7 7 7 7 7 7 7 8
2 2 2 1 1 1 1 1 1 1 1 1 1 1 1 1 1 1 2 2 3 3 3 4 4 4 5 5 6 7 8 9 10 10 10 9 8 8 7 7 7 7 8
1 1 1 0 0 0 0 0 0 0 0 0 0 0 0 1 1 2 3 3 4 4 5 6 6 6 6 7 8 9 10 11 11 11 11 10 10 9 9 8 8 8 8
1 1 0 0 -0 -0 -0 -0 -0 0 0 0 0 1 1 1 2 3 4 4 5 5 6 6 6 6 7 8 9 10 11 11 11 11 11 11 10 10 9 9 9 9 9